Weather Service Report


701 
ASUS44 KLZK 211805
RWRLZK

WEATHER ROUNDUP FOR ARKANSAS
NATIONAL WEATHER SERVICE LITTLE ROCK AR
100 PM CDT THU AUG 21 2014

NOTE: "FAIR" INDICATES FEW OR NO CLOUDS BELOW 12,000 FEET WITH NO
SIGNIFICANT WEATHER AND/OR OBSTRUCTIONS TO VISIBILITY.

ARZ001-003-010-029-211900-
NORTHWEST ARKANSAS
  
CITY           SKY/WX    TMP DP  RH WIND       PRES   REMARKS
FAYETTEVILLE   SUNNY     88  71  57 S15       30.07F HX  94           
6HR MIN TEMP:  74; 6HR MAX TEMP:  88;                                

FORT SMITH     SUNNY     91  71  51 SW9       30.04F HX  97           
6HR MIN TEMP:  75; 6HR MAX TEMP:  91;                                

HARRISON       SUNNY     89  69  51 S8        30.08F HX  93           
6HR MIN TEMP:  73; 6HR MAX TEMP:  90;                                

BENTONVILLE    SUNNY     90  70  51 S9        30.07F HX  95           
6HR MIN TEMP:  75; 6HR MAX TEMP:  90;                                

ROGERS         SUNNY     90  67  46 S17G23    30.07F HX  93           
6HR MIN TEMP:  75; 6HR MAX TEMP:  90;                                

SILOAM SPGS    SUNNY     88  70  55 S15       30.07S HX  92           
6HR MIN TEMP:  73; 6HR MAX TEMP:  88;                                

HIGHFILL       SUNNY     90  70  51 S15       30.06F HX  95           
6HR MIN TEMP:  73; 6HR MAX TEMP:  90;                                

SPRINGDALE     MOSUNNY   88  72  58 S13G23    30.09S HX  94           
$$

ARZ004-005-016-211900-
NORTH CENTRAL ARKANSAS
  
CITY           SKY/WX    TMP DP  RH WIND       PRES   REMARKS
BATESVILLE     SUNNY     93  72  49 SW14      30.06F HX 100           
6HR MIN TEMP:  77; 6HR MAX TEMP:  93;                                

FLIPPIN        SUNNY     91  66  43 S9        30.05F HX  94           
6HR MIN TEMP:  70; 6HR MAX TEMP:  93;                                

MTN HOME       SUNNY     94  70  45 SW9       30.05F HX 100           
6HR MIN TEMP:  74; 6HR MAX TEMP:  94;                                

$$

ARZ040-041-211900-
WEST CENTRAL ARKANSAS
  
CITY           SKY/WX    TMP DP  RH WIND       PRES   REMARKS
MENA           MOSUNNY   88  73  62 CALM      30.11F HX  96           
MOUNT IDA      MOSUNNY   86  71  60 VRB3      30.09F HX  91           
6HR MIN TEMP:  72; 6HR MAX TEMP:  87;                                

$$

ARZ009-017-025-026-028-211900-
NORTHEAST ARKANSAS
  
CITY           SKY/WX    TMP DP  RH WIND       PRES   REMARKS
CORNING        LGT RAIN  91  75  59 SW15      30.05F HX 102           
JONESBORO      SUNNY     93  73  52 W16G23    30.06F HX 102           
6HR MIN TEMP:  75; 6HR MAX TEMP:  93;                                

NEWPORT        MOSUNNY   93  74  54 S10       30.07F HX 102           
6HR MIN TEMP:  75; 6HR MAX TEMP:  93;                                

WALNUT RIDGE   SUNNY     91  72  52 SW15      30.04F HX  98           
6HR MIN TEMP:  73; 6HR MAX TEMP:  91;                                

BLYTHEVILLE    MOSUNNY   89  78  70 SW12G18   30.08F HX 103           
6HR MIN TEMP:  76; 6HR MAX TEMP:  89;                                

$$

ARZ022-023-033-042-044-211900-
CENTRAL ARKANSAS
  
CITY           SKY/WX    TMP DP  RH WIND       PRES   REMARKS
LITTLE ROCK    MOSUNNY   90  69  50 SW12G20   30.09S HX  94           
6HR MIN TEMP:  74; 6HR MAX TEMP:  91;                                

N LITTLE ROCK  MOSUNNY   89  72  57 SW8       30.09S HX  96           
6HR MIN TEMP:  74; 6HR MAX TEMP:  89;                                

JACKSONVILLE   SUNNY     90  73  58 S9        30.08F HX  97           
6HR MIN TEMP:  74; 6HR MAX TEMP:  90;                                

SEARCY           N/A     92  74  55 CALM        N/A  HX 101           
6HR MIN TEMP:  73; 6HR MAX TEMP:  92;                                

HOT SPRINGS    MOSUNNY   87  71  58 SW10      30.11S HX  93           
6HR MIN TEMP:  75; 6HR MAX TEMP:  88;                                

RUSSELLVILLE   SUNNY     91  71  51 MISG      30.06F HX  97           
6HR MIN TEMP:  73; 6HR MAX TEMP:  91;                                

CLINTON        FAIR      93  72  49 W7        30.07F HAZE    HX 100   
$$

ARZ036-211900-
EAST ARKANSAS
  
CITY           SKY/WX    TMP DP  RH WIND       PRES   REMARKS
WEST MEMPHIS   MOSUNNY   90  76  63 SW7       30.08F HX 101           
6HR MIN TEMP:  74; 6HR MAX TEMP:  90;                                

$$

ARZ050-053-066-070-073-211900-
SOUTHWEST ARKANSAS
  
CITY           SKY/WX    TMP DP  RH WIND       PRES   REMARKS
ARKADELPHIA    FAIR      89  75  63 SW7       30.10F HX  98           
6HR MIN TEMP:  73; 6HR MAX TEMP:  89;                                

CAMDEN         MOSUNNY   91  72  52 W7        30.09F HX  98           
TEXARKANA      MOSUNNY   89  75  63 SW5       30.09F HX  99           
6HR MIN TEMP:  73; 6HR MAX TEMP:  89;                                

EL DORADO      MOSUNNY   88  74  63 VRB7      30.11S HX  96           
6HR MIN TEMP:  71; 6HR MAX TEMP:  89;                                

DE QUEEN       PTSUNNY   87  75  67 VRB7      30.06F HX  96           
6HR MIN TEMP:  71; 6HR MAX TEMP:  88;                                

$$

ARZ056-057-069-211900-
SOUTHEAST ARKANSAS
  
CITY           SKY/WX    TMP DP  RH WIND       PRES   REMARKS
PINE BLUFF     MOSUNNY   91  73  55 SW10      30.09F HX  99           
6HR MIN TEMP:  73; 6HR MAX TEMP:  91;                                

STUTTGART      SUNNY     91  75  59 SW9       30.10S HX 102           
6HR MIN TEMP:  73; 6HR MAX TEMP:  91;                                

MONTICELLO     PTSUNNY   90  75  61 SW9       30.10S HX 100           
6HR MIN TEMP:  77; 6HR MAX TEMP:  90;                                


$$



Return to Home page


Western Regional Climate Center, wrcc@dri.edu